Tracking 19846 objects as of 19-Sep-2019
HD Live streaming from Space Station
objects crossing your sky now

INTELSAT 3-F3

Track INTELSAT 3-F3 now!
INTELSAT 3-F3 is classified as:


NORAD ID: 3674
Int'l Code: 1969-011A
Perigee: 39,903.3 km
Apogee: 41,555.2 km
Inclination: 15.6 °
Period: 1,695.5 minutes
Semi major axis: 47100 km
RCS: 0.4044 m2 (medium)
Launch date: February 6, 1969
Source: International Telecommunications Satellite Organization (ITSO)
Launch site: AIR FORCE EASTERN TEST RANGE (AFETR)
aabbcc
Your satellite tracking list
Your tracking list is empty




NASA's NSSDC Master Catalog

Two Line Element Set (TLE):
1  3674U 69011A   19261.04429529 -.00000175 +00000-0 +00000-0 0  9995
2  3674 015.6445 320.3239 0175366 313.4709 043.2195 00.84931368045762
Source of the keplerian elements: AFSPC